SCP
0 -0 -0 0 0 0 -0 -0 -0 -0 -0 0 0 -0 0 -0 -0 -0 -0 0 0 0 0 0 0 0 0 0 0 0 0 0
-0 -0 -0 0 0 -0 0 0 -0 -0 0 0 0 -0 -0 -0 -0 -0 0 0 0 0 0 0 0 0 0 0 0 0 0 0
-0 0 0 -0 -0 0 -0 -0 -0 -0 0 0 0 -0 -0 -0 -0 -0 0 -0 -0 -0 0 0 0 0 0 0 0 0 0 0
0 0 0 -0 0 0 0 0 -0 -0 -0 -0 -0 -0 0 -0 -0 -0 0 -0 -0 -0 -0 0 0 0 0 0 0 0 0 0
0 0 0 -0 0 0 0 0 0 0 -0 0 -0 0 0 0 -0 0 0 -0 -0 -0 -0 0 0 0 0 0 0 0 0 0
0 0 0 0 0 0 0 0 0 0 0 0 0 0 0 0 -0 0 -0 -0 -0 -0 -0 -0 -0 -0 -0 0 0 0 0 0
0 -0 0 -0 -0 -0 0 0 0 0 0 0 0 0 0 -0 0 0 0 0 -0 -0 -0 -0 -0 -0 -0 -0 -0 0 0 0
-0 0 -0 0 0 -0 0 1 0 0 -0 0 0 -0 0 0 0 0 0 0 0 -0 -0 -0 -0 -0 -0 -0 -0 -0 0 0
0 0 0 0 0 0 0 1 -0 -1 -0 -0 -0 -0 0 0 0 0 0 0 0 0 0 0 0 -0 -0 0 0 0 0 0
0 -0 -0 -0 0 0 0 0 0 -0 -0 -0 -0 -0 0 0 0 0 0 0 0 0 0 0 0 0 0 0 0 0 0 0
-0 0 0 0 0 0 0 0 0 0 0 0 -0 0 0 0 0 0 0 0 0 0 0 0 0 0 0 0 0 0 0 0
0 0 0 0 0 0 0 0 0 0 0 0 0 0 0 0 0 0 -0 0 0 0 0 0 0 0 0 0 0 0 0 0
0 0 0 0 0 0 0 0 0 0 0 0 0 0 0 0 0 0 0 0 0 0 0 0 0 0 0 0 0 0 0 0
0 0 0 0 0 0 0 0 0 0 0 0 0 0 0 0 0 0 0 0 0 0 0 0 0 0 0 0 0 0 0 0
0 0 0 0 0 0 0 0 0 0 0 0 0 0 0 0 0 0 0 0 0 0 0 0 0 0 0 0 0 0 0 0
0 0 0 0 0 0 0 0 0 0 0 0 0 0 0 0 0 0 0 0 0 0 0 0 0 0 0 0 0 0 0 0
0 0 0 0 0 0 0 0 0 0 0 0 0 0 0 0 0 0 0 0 0 0 0 1 1 1 0 0 0 0 0 0
0 0 0 0 0 0 0 0 0 0 0 0 0 0 0 0 0 0 0 0 0 0 1 0 0 0 0 0 0 0 0 0
0 -0 0 0 0 0 0 0 0 0 0 0 0 0 0 0 0 0 0 1 1 0 0 0 0 0 0 0 0 0 0 0
0 -0 -0 0 0 0 0 0 0 0 0 0 0 0 0 0 0 1 1 0 0 0 0 0 0 0 0 0 0 0 0 0
Wind_Speed_500mb
8 6 7 13 6 6 13 57 50 31 45 20 28 24 29 40 35 18 17 19 20 18 17 17 17 17 16 15 13 11 10 9
3 10 12 13 12 17 23 28 51 49 21 37 33 30 35 31 16 6 10 16 18 17 15 14 13 13 13 11 10 8 7 6
6 5 9 12 47 50 39 40 38 39 27 28 32 37 33 31 21 10 17 16 18 17 15 13 12 10 10 8 7 7 8 9
9 3 8 9 30 60 49 58 50 33 37 21 40 33 28 31 27 17 22 21 22 22 19 17 14 11 8 7 6 6 7 9
17 26 8 9 58 40 26 31 44 46 18 37 31 34 32 34 26 18 24 30 28 28 22 20 16 15 14 12 10 8 7 9
17 16 8 36 33 66 52 6 41 50 16 27 35 43 42 34 28 19 16 19 25 23 25 24 23 19 18 17 16 14 14 12
23 22 7 41 22 17 41 46 15 20 47 53 47 40 40 39 42 34 24 23 21 18 19 24 25 25 24 24 24 25 22 14
21 28 14 26 36 41 37 61 55 59 53 51 45 45 53 48 45 44 46 35 24 13 14 14 19 17 21 21 24 27 27 25
43 21 23 7 13 34 36 28 66 65 61 48 43 45 51 45 50 51 39 33 32 19 26 16 16 14 15 17 18 22 23 27
50 29 11 10 38 9 44 55 68 64 55 43 33 26 44 62 57 46 26 26 37 31 29 28 24 21 15 13 12 14 23 26
25 26 22 12 24 28 45 71 66 56 48 39 33 32 47 60 50 44 26 26 34 32 27 18 14 16 14 3 8 7 14 23
10 18 13 5 23 40 59 66 59 52 42 32 24 34 43 46 38 30 30 25 24 23 18 10 5 7 4 6 7 7 18 25
12 12 11 5 10 16 61 54 56 48 41 32 38 31 32 29 31 43 39 33 23 13 7 4 7 5 1 6 10 16 19 19
17 6 6 15 9 5 50 62 60 51 41 33 39 35 35 29 32 39 35 30 20 11 7 7 11 9 11 15 17 23 29 32
19 28 14 14 9 24 34 47 55 50 45 38 41 41 43 43 42 32 27 25 24 18 14 14 20 23 22 14 20 29 26 18
18 17 19 15 15 15 24 50 47 51 48 50 50 49 51 50 45 40 33 25 17 20 20 23 28 25 17 17 20 19 27 38
17 19 25 20 16 21 38 56 49 54 58 61 62 57 59 60 54 48 44 42 41 39 30 29 31 29 27 30 34 37 42 35
18 14 16 19 17 18 14 38 65 66 65 67 69 66 66 68 63 59 57 49 37 24 30 30 34 35 37 41 34 35 35 38
13 19 4 12 5 9 16 22 60 72 71 66 68 76 73 77 73 65 52 40 34 35 35 36 39 39 35 31 33 40 46 55
19 15 5 7 10 11 15 23 17 56 73 67 65 66 78 77 77 65 50 43 42 38 32 28 29 30 32 34 41 48 59 66
Wind_Direction_500mb
155 192 206 165 262 182 218 117 99 81 66 59 104 119 104 114 120 95 82 110 114 115 115 111 107 103 99 99 95 90 85 81
95 253 284 169 199 211 38 76 88 99 70 65 109 117 126 128 145 142 87 105 101 104 109 108 103 99 93 89 81 76 65 46
256 196 225 211 178 108 48 66 53 89 112 96 105 131 129 143 149 159 96 101 96 96 96 99 98 95 90 80 58 38 23 9
292 23 258 292 92 105 100 90 68 93 117 123 127 137 132 126 140 120 73 97 92 89 93 96 100 102 92 74 46 18 359 350
287 295 198 217 122 127 134 146 153 149 137 140 144 138 135 135 120 102 79 93 97 79 90 85 87 86 83 73 60 44 28 29
273 294 24 147 138 144 135 173 134 139 142 154 148 149 138 143 148 122 106 96 92 80 76 72 65 68 68 61 47 27 25 37
281 291 92 161 119 149 128 135 145 185 152 142 136 147 143 146 152 138 109 98 97 71 73 62 55 71 57 48 38 39 35 34
273 303 205 120 113 151 131 119 108 113 132 147 156 151 154 153 148 131 120 119 107 100 78 78 55 62 42 32 36 41 43 51
267 258 80 37 96 155 143 123 138 138 148 160 171 174 169 162 151 142 140 142 146 142 141 115 111 70 52 53 27 27 21 33
265 318 162 179 122 98 106 143 144 143 151 159 180 201 180 156 152 149 153 140 163 143 154 143 129 124 110 87 14 8 358 349
291 311 331 123 137 115 121 138 138 140 152 159 182 117 143 149 149 151 151 163 151 167 171 158 140 155 159 90 86 354 337 325
283 289 283 332 113 105 125 131 134 142 152 164 181 132 131 137 138 153 168 173 161 158 153 127 123 109 103 133 230 278 290 296
291 259 274 165 85 132 139 141 142 152 161 171 155 153 141 148 151 160 168 180 197 193 194 334 293 306 288 234 286 343 349 325
263 204 309 104 264 327 160 153 155 158 165 176 161 162 166 176 176 178 184 188 181 207 215 266 298 298 305 339 344 353 339 332
272 190 182 131 199 259 187 163 159 163 172 180 168 170 175 186 192 200 210 210 195 189 199 229 258 283 307 323 326 312 306 315
232 224 191 177 189 227 225 171 171 171 181 188 183 184 187 191 196 198 196 199 198 198 224 243 264 276 278 296 288 268 277 290
284 231 171 193 191 213 236 172 178 185 191 197 197 196 196 197 198 197 202 208 219 221 240 264 275 280 289 276 272 277 284 292
303 342 134 188 209 223 204 184 188 197 201 203 201 198 197 199 196 198 202 209 203 218 238 247 258 266 277 286 286 288 293 292
292 313 21 126 244 251 280 252 200 200 204 206 202 200 201 198 198 200 193 187 194 220 231 237 244 262 281 279 282 294 304 309
311 300 215 113 260 264 248 256 241 202 202 206 206 204 205 204 195 186 181 193 202 210 218 233 254 289 305 315 318 318 317 317
Wind_Speed_850mb
8 6 7 13 6 6 13 57 50 31 45 20 28 24 29 40 35 18 17 19 20 18 17 17 17 17 16 15 13 11 10 9
3 10 12 13 12 17 23 28 51 49 21 37 33 30 35 31 16 6 10 16 18 17 15 14 13 13 13 11 10 8 7 6
6 5 9 12 47 50 39 40 38 39 27 28 32 37 33 31 21 10 17 16 18 17 15 13 12 10 10 8 7 7 8 9
9 3 8 9 30 60 49 58 50 33 37 21 40 33 28 31 27 17 22 21 22 22 19 17 14 11 8 7 6 6 7 9
17 26 8 9 58 40 26 31 44 46 18 37 31 34 32 34 26 18 24 30 28 28 22 20 16 15 14 12 10 8 7 9
17 16 8 36 33 66 52 6 41 50 16 27 35 43 42 34 28 19 16 19 25 23 25 24 23 19 18 17 16 14 14 12
23 22 7 41 22 17 41 46 15 20 47 53 47 40 40 39 42 34 24 23 21 18 19 24 25 25 24 24 24 25 22 14
21 28 14 26 36 41 37 61 55 59 53 51 45 45 53 48 45 44 46 35 24 13 14 14 19 17 21 21 24 27 27 25
43 21 23 7 13 34 36 28 66 65 61 48 43 45 51 45 50 51 39 33 32 19 26 16 16 14 15 17 18 22 23 27
50 29 11 10 38 9 44 55 68 64 55 43 33 26 44 62 57 46 26 26 37 31 29 28 24 21 15 13 12 14 23 26
25 26 22 12 24 28 45 71 66 56 48 39 33 32 47 60 50 44 26 26 34 32 27 18 14 16 14 3 8 7 14 23
10 18 13 5 23 40 59 66 59 52 42 32 24 34 43 46 38 30 30 25 24 23 18 10 5 7 4 6 7 7 18 25
12 12 11 5 10 16 61 54 56 48 41 32 38 31 32 29 31 43 39 33 23 13 7 4 7 5 1 6 10 16 19 19
17 6 6 15 9 5 50 62 60 51 41 33 39 35 35 29 32 39 35 30 20 11 7 7 11 9 11 15 17 23 29 32
19 28 14 14 9 24 34 47 55 50 45 38 41 41 43 43 42 32 27 25 24 18 14 14 20 23 22 14 20 29 26 18
18 17 19 15 15 15 24 50 47 51 48 50 50 49 51 50 45 40 33 25 17 20 20 23 28 25 17 17 20 19 27 38
17 19 25 20 16 21 38 56 49 54 58 61 62 57 59 60 54 48 44 42 41 39 30 29 31 29 27 30 34 37 42 35
18 14 16 19 17 18 14 38 65 66 65 67 69 66 66 68 63 59 57 49 37 24 30 30 34 35 37 41 34 35 35 38
13 19 4 12 5 9 16 22 60 72 71 66 68 76 73 77 73 65 52 40 34 35 35 36 39 39 35 31 33 40 46 55
19 15 5 7 10 11 15 23 17 56 73 67 65 66 78 77 77 65 50 43 42 38 32 28 29 30 32 34 41 48 59 66
Wind_Direction_850mb
155 192 206 165 262 182 218 117 99 81 66 59 104 119 104 114 120 95 82 110 114 115 115 111 107 103 99 99 95 90 85 81
95 253 284 169 199 211 38 76 88 99 70 65 109 117 126 128 145 142 87 105 101 104 109 108 103 99 93 89 81 76 65 46
256 196 225 211 178 108 48 66 53 89 112 96 105 131 129 143 149 159 96 101 96 96 96 99 98 95 90 80 58 38 23 9
292 23 258 292 92 105 100 90 68 93 117 123 127 137 132 126 140 120 73 97 92 89 93 96 100 102 92 74 46 18 359 350
287 295 198 217 122 127 134 146 153 149 137 140 144 138 135 135 120 102 79 93 97 79 90 85 87 86 83 73 60 44 28 29
273 294 24 147 138 144 135 173 134 139 142 154 148 149 138 143 148 122 106 96 92 80 76 72 65 68 68 61 47 27 25 37
281 291 92 161 119 149 128 135 145 185 152 142 136 147 143 146 152 138 109 98 97 71 73 62 55 71 57 48 38 39 35 34
273 303 205 120 113 151 131 119 108 113 132 147 156 151 154 153 148 131 120 119 107 100 78 78 55 62 42 32 36 41 43 51
267 258 80 37 96 155 143 123 138 138 148 160 171 174 169 162 151 142 140 142 146 142 141 115 111 70 52 53 27 27 21 33
265 318 162 179 122 98 106 143 144 143 151 159 180 201 180 156 152 149 153 140 163 143 154 143 129 124 110 87 14 8 358 349
291 311 331 123 137 115 121 138 138 140 152 159 182 117 143 149 149 151 151 163 151 167 171 158 140 155 159 90 86 354 337 325
283 289 283 332 113 105 125 131 134 142 152 164 181 132 131 137 138 153 168 173 161 158 153 127 123 109 103 133 230 278 290 296
291 259 274 165 85 132 139 141 142 152 161 171 155 153 141 148 151 160 168 180 197 193 194 334 293 306 288 234 286 343 349 325
263 204 309 104 264 327 160 153 155 158 165 176 161 162 166 176 176 178 184 188 181 207 215 266 298 298 305 339 344 353 339 332
272 190 182 131 199 259 187 163 159 163 172 180 168 170 175 186 192 200 210 210 195 189 199 229 258 283 307 323 326 312 306 315
232 224 191 177 189 227 225 171 171 171 181 188 183 184 187 191 196 198 196 199 198 198 224 243 264 276 278 296 288 268 277 290
284 231 171 193 191 213 236 172 178 185 191 197 197 196 196 197 198 197 202 208 219 221 240 264 275 280 289 276 272 277 284 292
303 342 134 188 209 223 204 184 188 197 201 203 201 198 197 199 196 198 202 209 203 218 238 247 258 266 277 286 286 288 293 292
292 313 21 126 244 251 280 252 200 200 204 206 202 200 201 198 198 200 193 187 194 220 231 237 244 262 281 279 282 294 304 309
311 300 215 113 260 264 248 256 241 202 202 206 206 204 205 204 195 186 181 193 202 210 218 233 254 289 305 315 318 318 317 317